Location: Newark
(21.1200°N, 73.4000°E)
Time: 03:27:44
(UTC+00:00)

Courier 1B Rocket - Pass Details

Date: 19 January 2020
Orbit: 920 x 1202 km, 28.2° (Epoch: 17 February)

Event Time Altitude Azimuth Distance (km) Brightness Sun altitude
Rises 17:14:59 0° 260° (W) 3,611 - -61.5°
Reaches altitude 10° 17:20:01 10° 226° (SW) 2,725 - -62.7°
Maximum altitude 17:21:45 11° 211° (SSW) 2,670 - -63.1°
Drops below altitude 10° 17:23:31 10° 195° (SSW) 2,774 - -63.5°
Sets 17:28:51 0° 162° (SSE) 3,807 - -64.7°
